Weather in Allaga

Russia / Sakha (Yakutia) Republic     62°13′39″N   117°03′06″E
temp.,
°C
wind,
m/s
gust,
m/s
humid.,
%
clouds,
%
prec.,
mm/h
press.,
hPa
HPBL,
m
9 march, tue
tue900:00−11w4129199 0.1 1009615
03:00−12w4129196 0.1 1011441
06:00−15wsw3119356 0.0 1013289
09:00−15wsw4109327 0.0 1014309
12:00−10sw488963 0.0 1012534
15:00−8s5108582 0.0 1006680
18:00−8s51286100 0.0 1001894
21:00−7ssw51194100 1.1 997856
10 march, wed
wed1000:00−8ssw31392100 0.3 996567
03:00−11w61480100 0.8 9991114
06:00−13wsw71581100 0.0 10031385
09:00−14w71679100 0.0 10051379
12:00−13w81580100 0.0 10071415
15:00−13w81478100 0.1 10091571
18:00−13w51382100 0.1 10111527
21:00−16wsw4148782 0.1 1012692
11 march, thu
thu1100:00−17wsw312880 0.0 1013365
03:00−19w38910 0.0 1014183
06:00−21wsw36940 0.0 1016112
09:00−20wsw310940 0.0 1017284
12:00−12w488225 0.0 1017814
15:00−10wsw367939 0.0 10161066
18:00−10sw2689100 0.1 1015327
21:00−14s239299 0.1 101421
12 march, fri
fri1200:00−14sse2396100 0.0 101155
03:00−14se2396100 0.0 100854
06:00−13e2397100 0.1 100678
09:00−11ene2496100 0.4 1005150
12:00−8ene2494100 0.4 1004314
15:00−6ne2493100 0.8 1004398
18:00−6nne1296100 0.4 1004168
21:00−8nw0097100 0.9 100521
13 march, sat
sat1300:00−9wsw3129483 0.1 1004282
03:00−10sw399466 0.1 1003233
06:00−13s2396100 0.0 100155
09:00−10sse3994100 0.0 996279
12:00−6ssw4893100 1.2 992735
15:00−7wsw81388100 1.9 991988
18:00−8wsw51289100 0.3 992945
21:00−8w51193100 0.6 996771